Jefferson, OH

11:17 AM EST on January 23, 2017 (GMT -0500)
Ashtabula County

Weather History for KHZY - October, 2013

Change the Weather History Date:

Thursday, October 17, 2013

  Actual Average (KGKJ) Record (KGKJ)
Temperature  
Mean Temperature 52 °F -  
Max Temperature 60 °F 59 °F 81 °F (1956)
Min Temperature 45 °F 39 °F 28 °F (1952)
Degree Days  
Heating Degree Days 13    
Growing Degree Days 2 (Base 50)    
Moisture  
Dew Point 44 °F    
Average Humidity 81    
Maximum Humidity 90    
Minimum Humidity 60    
Precipitation  
Precipitation 0.22 in - - ()
Sea Level Pressure  
Sea Level Pressure 29.87 in    
Wind  
Wind Speed 3 mph (SW)    
Max Wind Speed 14 mph    
Max Gust Speed 21 mph    
Visibility 9 miles    
Events Rain    
Averages and records for this station are not official NWS values.
T = Trace of Precipitation, MM = Missing Value Source: NWS Daily Summary

Daily Weather History Graph

Daily Weather History Graph

Search for Another Location

Airport or City:

Trip Planner

Search our weather history database for the weather conditions in past years. The results will help you decide how hot, cold, wet, or windy it might be!

Date:

Astronomy

Oct. 17, 2013 Rise Set
Actual Time 7:37 AM EDT 6:37 PM EDT
Civil Twilight 7:09 AM EDT 7:06 PM EDT
Nautical Twilight 6:37 AM EDT 7:38 PM EDT
Astronomical Twilight 6:04 AM EDT 8:10 PM EDT
Moon 5:51 PM EDT (10/17) 6:07 AM EDT (10/17)
Length of Visible Light 11h 56m
Length of Day
11h 00m
Waxing Gibbous, 98% of the Moon is Illuminated
Oct 17
Waxing Gibbous
Oct 18
Full
Oct 26
Last Quarter
Nov 3
New
Nov 10
First Quarter

Hourly Weather History & Observations

Time (EDT) Temp. Windchill Dew Point Humidity Pressure Visibility Wind Dir Wind Speed Gust Speed Precip Events Conditions
12:53 AM 48.9 °F - 44.1 °F 83% 29.91 in 10.0 mi Calm Calm - N/A   Clear
1:53 AM 48.0 °F - 44.1 °F 86% 29.92 in 10.0 mi Calm Calm - N/A   Clear
2:53 AM 48.0 °F - 44.1 °F 86% 29.92 in 10.0 mi Calm Calm - 0.01 in   Mostly Cloudy
3:02 AM 48.2 °F - 44.6 °F 87% 29.92 in 10.0 mi Calm Calm - N/A   Mostly Cloudy
3:53 AM 46.9 °F - 43.0 °F 86% 29.91 in 10.0 mi Calm Calm - N/A   Clear
4:53 AM 46.0 °F - 43.0 °F 89% 29.91 in 9.0 mi Calm Calm - N/A   Clear
5:51 AM 46.4 °F - 42.8 °F 87% 29.91 in 9.0 mi Calm Calm - N/A   Mostly Cloudy
5:53 AM 46.0 °F - 43.0 °F 89% 29.91 in 8.0 mi Calm Calm - N/A   Mostly Cloudy
6:09 AM 46.4 °F - 42.8 °F 87% 29.91 in 8.0 mi Calm Calm - N/A   Mostly Cloudy
6:53 AM 46.0 °F - 42.1 °F 86% 29.92 in 10.0 mi Calm Calm - N/A   Mostly Cloudy
7:53 AM 45.0 °F 43.5 °F 42.1 °F 90% 29.91 in 8.0 mi South 3.5 mph - N/A   Mostly Cloudy
8:53 AM 48.0 °F - 44.1 °F 86% 29.91 in 10.0 mi South 4.6 mph - N/A   Mostly Cloudy
9:53 AM 51.1 °F - 45.0 °F 80% 29.91 in 10.0 mi South 6.9 mph - N/A   Mostly Cloudy
10:53 AM 55.0 °F - 45.0 °F 69% 29.90 in 10.0 mi SSW 9.2 mph - N/A   Clear
11:53 AM 57.0 °F - 44.1 °F 62% 29.89 in 10.0 mi SW 9.2 mph - N/A   Clear
12:53 PM 59.0 °F - 45.0 °F 60% 29.85 in 10.0 mi SSW 8.1 mph - N/A   Clear
1:53 PM 57.9 °F - 44.1 °F 60% 29.81 in 10.0 mi South 8.1 mph - N/A   Mostly Cloudy
2:53 PM 57.9 °F - 45.0 °F 62% 29.79 in 10.0 mi WSW 6.9 mph - N/A   Overcast
3:53 PM 52.0 °F - 46.9 °F 83% 29.81 in 3.0 mi WNW 9.2 mph - 0.08 in Rain Heavy Rain
4:53 PM 51.1 °F - 48.0 °F 89% 29.78 in 3.0 mi WSW 3.5 mph - 0.10 in Rain Rain
5:53 PM 51.1 °F - 46.9 °F 86% 29.78 in 10.0 mi WSW 4.6 mph - 0.02 in Rain Light Rain
6:53 PM 51.1 °F - 48.0 °F 89% 29.80 in 10.0 mi WSW 5.8 mph - 0.00 in   Overcast
7:53 PM 50.0 °F - 45.0 °F 83% 29.83 in 8.0 mi WSW 12.7 mph - 0.01 in   Overcast
8:53 PM 50.0 °F - 45.0 °F 83% 29.83 in 10.0 mi SW 6.9 mph - N/A   Overcast
9:53 PM 50.0 °F - 44.1 °F 80% 29.83 in 10.0 mi SW 10.4 mph - 0.00 in   Overcast
10:53 PM 48.9 °F - 43.0 °F 80% 29.84 in 10.0 mi WSW 10.4 mph - 0.00 in   Overcast
11:53 PM 48.9 °F - 43.0 °F 80% 29.84 in 10.0 mi WSW 13.8 mph 20.7 mph 0.00 in   Overcast